Find Starlink 11519

NORAD ID: 62560 Int'l Des: 2025-006 Owner: SPXS Country: US Constellation: starlink operational
別名: STARLINK-11519 [DTC] celestrak
LEOCIRCULAR

現在のビュー

3D地球を読み込み中...

About Starlink 11519

Starlink 11519 (NORAD 62560) is a starlink constellation satellite (v2 mini d2c) launched Jan 10, 2025 by SPXS of US. It operates in LEO, CIRCULAR orbit with a mass of 960.00 kg.

次回通過

Passes for default location (London). Set your location on the main map for personalized predictions.

高度履歴

Loading altitude history...

軌道要素

1 62560U 25006G 26263.54476414 .00200193 00000-0 15125-2 0 9997
2 62560 42.9997 45.7681 0001748 197.5669 162.5139 15.71056736 97245
Epoch: Sep 20, 2026 • Age: 21 hours

現在のステータス

高度 355.3 km
遠地点 / 近地点 N/A
速度 7.70 km/s
衛星直下点 3.21°N, 113.29°W
打ち上げ日 Jan 10, 2025
運用期間 1.6 years
タイプ internet

技術仕様

分類 Payload
質量 960.00 kg
乾燥質量 910.00 kg
長さ 0.30 m
スパン 29.00 m
形状 ? Box + pan
製造者 SPXS
バスタイプ Starlink V2MD
フェーズステータス In Orbit
所有者/国 SPXS/US

Most Searched